Content
SEND FEEDBACK

Daily
Averages
Monthly
Summary
Spain

SANTANDER, SPAIN


Home > Europe > Spain
Elevation: 213 feet     Latitude: 43 28N     Longitude: 003 49W

WEATHER
 
SELECT A DAY
Number of Records: 180,947;   Date Range: 7/1/96 - 8/12/14
 
SHARE

PRINT THIS DATA

[ ← Previous Day ]
WEATHER ALMANAC - FEBRUARY 13, 2013
[ Next Day → ]
[ °C ]   °F
Weather ElementAverageHighLow
Temperature51.2 °F53.6 °F (11:43 am)44.6 °F (7:30 am)
Dewpoint48.4 °F51.8 °F (11:30 am)44.6 °F (7:30 am)
Humidity90.9 %100 % (6:00 am)77 % (5:30 pm)
Barometer30.24 in30.30 in (8:00 pm)30.15 in (6:00 am)
Wind Speed11.3 mph20.7 mph (2:30 pm)
Wind Gust31.1 mph (11:43 am)
Weather ElementAverage
Visibility4.9 mi
Wind DirectionWSW (244.7 °)

Weather ElementTotal
Precipitation---
Heating Degree Days15.9 (Base 65)
Averaged from 38 records on February 13, 2013
WEATHER CONDITIONS BREAKOUT
WIND DIRECTION BREAKOUT
WEATHER BY HOUR - FEBRUARY 13, 2013
[ °C ]   °F
Local TimeTemperatureDewpointHumidityBarometerVisibilityWind DirectionWind SpeedGust SpeedPrecipitationEventsConditions
6:00 AM46.4 °F46.4 °F100 %30.15 in1.6 miVariable1.2 mphLight Drizzle
6:30 AM46.4 °F46.4 °F100 %30.15 in1.6 miWSW (250°)1.2 mphLight Drizzle
7:00 AM46.4 °F46.4 °F100 %30.15 in1.9 miSW (220°)2.3 mphLight Drizzle
7:30 AM44.6 °F44.6 °F100 %30.15 in1.6 miSSW (210°)3.5 mphLight Drizzle
8:00 AM44.6 °F44.6 °F100 %30.15 in2.2 miSW (220°)3.5 mphLight Drizzle
8:30 AM46.4 °F46.4 °F100 %30.18 in2.2 miVariable1.2 mphLight Drizzle
9:00 AM46.4 °F46.4 °F100 %30.18 in2.2 miCalmRainLight Rain
9:30 AM46.4 °F46.4 °F100 %30.18 in2.2 miVariable1.2 mphRainLight Rain
10:00 AM46.4 °F46.4 °F100 %30.21 in1.9 miWSW (250°)2.3 mphRainLight Rain
10:30 AM46.4 °F46.4 °F100 %30.21 in1.9 miSW (220°)6.9 mphRainLight Rain
11:00 AM48.2 °F48.2 °F100 %30.21 in1.2 miWSW (250°)4.6 mphRainLight Rain
11:08 AM50.0 °F50.0 °F100 %30.21 in6.2 miWest (270°)8.1 mphRainLight Rain
11:30 AM51.8 °F51.8 °F100 %30.21 inNW (310°)16.1 mph29.9 mphRainLight Rain
11:43 AM53.6 °F51.8 °F94 %30.24 in6.2 miWNW (300°)19.6 mph31.1 mphMostly Cloudy
12:00 PM53.6 °F51.8 °F94 %30.24 in6.2 miWNW (290°)18.4 mphMostly Cloudy
12:30 PM53.6 °F50.0 °F88 %30.24 in6.2 miWest (280°)19.6 mphMostly Cloudy
1:00 PM53.6 °F51.8 °F94 %30.24 in6.2 miWNW (290°)19.6 mphMostly Cloudy
1:30 PM53.6 °F51.8 °F94 %30.24 in6.2 miWNW (300°)18.4 mphMostly Cloudy
2:00 PM53.6 °F50.0 °F88 %30.24 in6.2 miWNW (290°)19.6 mphMostly Cloudy
2:30 PM53.6 °F50.0 °F88 %30.24 in6.2 miWNW (290°)20.7 mphMostly Cloudy
3:00 PM53.6 °F48.2 °F82 %30.24 in6.2 miWNW (290°)19.6 mphMostly Cloudy
3:30 PM53.6 °F48.2 °F82 %30.24 in6.2 miWest (280°)19.6 mphMostly Cloudy
4:00 PM53.6 °F48.2 °F82 %30.24 in6.2 miWNW (290°)17.3 mphMostly Cloudy
4:30 PM53.6 °F48.2 °F82 %30.24 in6.2 miWNW (290°)19.6 mphMostly Cloudy
5:00 PM53.6 °F48.2 °F82 %30.24 in6.2 miWNW (290°)16.1 mphMostly Cloudy
5:30 PM53.6 °F46.4 °F77 %30.24 in6.2 miWest (280°)15.0 mphMostly Cloudy
6:00 PM53.6 °F46.4 °F77 %30.27 in6.2 miWNW (290°)15.0 mphMostly Cloudy
6:30 PM53.6 °F46.4 °F77 %30.27 in6.2 miWNW (290°)11.5 mphMostly Cloudy
7:00 PM53.6 °F46.4 °F77 %30.27 in6.2 miWNW (290°)12.7 mphMostly Cloudy
7:30 PM53.6 °F48.2 °F82 %30.27 in6.2 miWest (280°)13.8 mphMostly Cloudy
8:00 PM53.6 °F48.2 °F82 %30.30 in6.2 miWNW (290°)12.7 mphMostly Cloudy
8:30 PM53.6 °F50.0 °F88 %30.30 in6.2 miWNW (290°)16.1 mphMostly Cloudy
9:00 PM53.6 °F50.0 °F88 %30.30 in6.2 miWNW (290°)16.1 mphMostly Cloudy
9:30 PM53.6 °F50.0 °F88 %30.30 in6.2 miWNW (290°)11.5 mphMostly Cloudy
10:00 PM51.8 °F50.0 °F94 %30.30 in6.2 miWNW (290°)8.1 mphMostly Cloudy
10:30 PM53.6 °F50.0 °F88 %30.30 in6.2 miWest (260°)8.1 mphMostly Cloudy
11:00 PM51.8 °F50.0 °F94 %30.30 in6.2 miWSW (250°)5.8 mphMostly Cloudy
11:30 PM51.8 °F50.0 °F94 %30.30 in6.2 miSW (230°)4.6 mphMostly Cloudy
Hourly data recorded from LEXJ, located miles away from Santander, Spain







STORIES FROM OUR PARTNERS